Regional Weather Roundup
Issued by NWS

Home | Current Version | Previous Version | Graphics & Text | Print | Product List | Glossary On
Versions: 1 2 3 4 5 6 7 8 9 10 11 12 13 14 15 16 17 18 19 20 21 22 23 24 25 26 27 28 29 30 31 32 33 34 35 36 37 38 39 40 41 42 43 44 45 46 47 48 49 50
000
ASUS45 KTFX 181219
RWRMT
MONTANA HOURLY WEATHER ROUNDUP
NATIONAL WEATHER SERVICE GREAT FALLS MT
619 AM MDT FRI APR 18 2014

NOTE: "FAIR" INDICATES FEW OR NO CLOUDS BELOW 12000 FEET WITH NO
SIGNIFICANT WEATHER AND/OR OBSTRUCTIONS TO VISIBILITY.

* THESE STATIONS ARE NOT UNDER NWS QUALITY CONTROL. THEY DO NOT
   REPORT WEATHER SUCH AS PRECIPITATION OR FOG.

MTZ001>007-043-181300-
WEST OF THE DIVIDE
CITY           SKY/WX    TMP DP  RH WIND       PRES   REMARKS
KALISPELL      CLOUDY    45  41  86 S9        29.70S
MISSOULA       CLOUDY    45  36  71 SW9       29.79R
BUTTE          LGT RAIN  39  36  89 W6        29.77S WCI  35
MULLAN PASS    CLOUDY    27  25  92 W12G31    29.75R WCI  16
* ESSEX        N/A       34  34 100 W1         N/A
* LINCOLN      N/A       40  38  93 SW3        N/A
* LOOKOUT PASS N/A       35  31  85 SE12G24    N/A   WCI  27
* PLAINS APT   MOCLDY    48  30  50 SW6       29.79R
* POLSON       N/A       39  37  93 S4G11      N/A
* SEELEY LAKE  N/A       37  36  96 E1         N/A
* THOMP F APT  CLOUDY    41  31  68 NE5G12     N/A
$$

MTZ008-052>055-181300-
SOUTHWEST MONTANA
CITY           SKY/WX    TMP DP  RH WIND       PRES   REMARKS
BOZEMAN        CLOUDY    48  37  66 NW8       29.71R
DILLON         LGT RAIN  45  36  71 N3        29.75R
W YELLOWSTONE  N/A       36  35  96 E1         N/A
* THREE FORKS  CLOUDY    46  43  89 N9         N/A
* BOULDER HILL N/A       39  34  82 SW4G11     N/A
* MONIDA PASS  N/A       40  30  68 SE13G19    N/A   WCI  32
* RAYNOLDS PAS N/A       38  21  50 S13        N/A   WCI  30
* WHITEHALL    N/A       44  38  80 NW8G26     N/A
* WISE RIVER   N/A       38  36  93 SE3G9      N/A
$$

MTZ009>010-012-014-046-048-049-054-181300-
EAST SLOPES AND CENTRAL MONTANA
CITY           SKY/WX    TMP DP  RH WIND       PRES   REMARKS
CUT BANK       MOCLDY    39  32  76 SW13      29.62S WCI  31
GREAT FALLS    CLOUDY    45  39  80 SW15      29.64S
HELENA         CLOUDY    46  37  71 NW7       29.72S
MALMSTROM AFB  CLOUDY    46  39  77 S12       29.62S
* CONRAD       CLOUDY    39  37  93 N/A        N/A
* DEARBORN     N/A       49  37  63 NE2        N/A
* EAST GLACIER N/A       37  33  85 W29G40     N/A   WCI  25
* MONARCH      N/A       40  34  79 S11G16     N/A   WCI  33
* PENDROY      N/A       39  34  82 W1         N/A
* ROGERS PASS  N/A       37  34  89 SE13G26    N/A   WCI  29
* SAINT MARY   N/A       39  33  79 S8G17      N/A   WCI  33
* SWEET GRASS  N/A       43  38  83 SW14       N/A
* WHITE SULPH  N/A       40  38  93 N5G18      N/A   WCI  36
$$

MTZ011-013-016-021-035-040-045-047-050-051-181300-
NORTH CENTRAL MONTANA
CITY           SKY/WX    TMP DP  RH WIND       PRES   REMARKS
HAVRE          CLOUDY    46  43  89 NE5       29.62F
LEWISTOWN      CLOUDY    43  34  71 W12       29.69R
* CHINOOK      CLOUDY    45  43  93 E7        29.63F
* FORT BENTON  CLOUDY    46  43  89 SW6       29.66R
* MALTA APT    CLOUDY    45  36  71 E5        29.66F
* CHESTER      N/A       43  41  93 S2         N/A
* DENTON       N/A       46  36  68 W11        N/A
* GEYSER       N/A       43  41  93 N3G9       N/A
* JUDITH GAP   N/A       40  30  68 SW3G8      N/A
* LOMA         N/A       45  43  93 NE1        N/A
$$

MTZ017>020-022>027-061-062-181300-
NORTHEAST MONTANA
CITY           SKY/WX    TMP DP  RH WIND       PRES   REMARKS
GLASGOW        CLOUDY    39  34  82 E21       29.70F WCI  29
GLENDIVE       MOCLDY    36  27  70 E13       29.79F WCI  27
JORDAN         CLOUDY    45  36  71 E8        29.67F
SIDNEY         PTCLDY    36  25  64 SE7       29.87F WCI  30
WOLF POINT     CLOUDY    43  28  56 E12       29.78F
* BEAVER HILL  N/A       33  25  72 E32G37     N/A   WCI  19
* CIRCLE       N/A       42  34  73 NE1G7      N/A
* LINDSAY DVD  N/A       34  30  85 E14G19     N/A   WCI  24
* NAVAJO       N/A       34  30  85 E10G15     N/A   WCI  26
* SACO         N/A       42  33  71 E20G25     N/A
$$

MTZ028>042-056>058-181300-
SOUTHCENTRAL AND SOUTHEAST MONTANA
CITY           SKY/WX    TMP DP  RH WIND       PRES   REMARKS
BAKER          PTCLDY    30  27  89 SE16      29.81F WCI  19
BILLINGS       CLOUDY    45  32  60 N6        29.65S
LIVINGSTON     CLOUDY    57  32  39 SW33G41   29.65S
MILES CITY     PTCLDY    45  36  71 SE13      29.71F
* EKALAKA APT  PTCLDY    34  28  79 E14G20    29.77F WCI  24
* LAUREL APT   CLOUDY    50  27  41 SW5        N/A
* ROUNDUP APT  CLOUDY    41  30  65 N/A        N/A
* HYSHAM       N/A       52  23  32 SE2        N/A
* LAME DEER    N/A       45  32  60 S9G14      N/A
* REED POINT   N/A       39  32  76 W8         N/A   WCI  33
* ROSCOE HILL  N/A       55  17  22 S14G24     N/A
$$

REGIONAL REPORTS...DAKOTAS
CITY           SKY/WX    TMP DP  RH WIND       PRES   REMARKS
WILLISTON      CLOUDY    37  25  62 SE10      29.90F WCI  30
DICKINSON      PTCLDY    30  23  75 SE14      29.89R WCI  19
CROSBY         MOCLDY    36  25  64 SE22G30   29.92F WCI  25
TIOGA          CLOUDY    32  23  69 SE18G33   29.96F WCI  21
WATFORD CITY   CLOUDY    32  23  69 SE16G22   29.88F WCI  21
BISMARCK       CLOUDY    36  21  54 E16       30.05F WCI  26
GRAND FORKS    PTCLDY    30  16  56 SE8       30.28S WCI  22
FARGO          CLOUDY    36  25  64 S9        30.27S WCI  29
BUFFALO SD     CLEAR     28  25  89 E6        29.78F WCI  21
RAPID CITY     CLEAR     34  30  85 SE5       29.82F WCI  29
$$

REGIONAL REPORTS...WYOMING/IDAHO/WASHINGTON
CITY           SKY/WX    TMP DP  RH WIND       PRES   REMARKS
GILLETTE       MOCLDY    39  34  82 S16       29.77S WCI  30
SHERIDAN       MOCLDY    37  34  89 CALM      29.72F
CODY           MOCLDY    48  36  63 SW13      29.74F
YELLOWSTONE LA CLOUDY    32  32 100 CALM      29.89F
SALMON         CLOUDY    45  37  74 CALM      29.80R
MULLAN PASS    CLOUDY    27  25  92 W12G31    29.75S WCI  16
SAND POINT     CLOUDY    43  43 100 SW9       29.74R
SPOKANE        PTCLDY    39  32  76 SW20      29.79R WCI  29
$$

REGIONAL REPORTS...ALBERTA
CITY           SKY/WX    TMP DP  RH WIND       PRES   REMARKS
CALGARY        FOG       30  30 100 N7        29.58S VSB 2    WCI  23
LETHBRIDGE     MOCLDY    37  34  89 CALM      29.58S
MEDICINE HAT   CLOUDY    43  39  86 SW3       29.59F
EDMONTON       LGT SNOW  28  27  96 N6        29.68S VSB 3    WCI  21
WATERTON GATE  N/A       41  34  76 SW20G29    N/A
CARDSTON       N/A       41  34  76 SW7        N/A
MILK RIVER     N/A       36  32  85 S5         N/A   WCI  32
$$

REGIONAL REPORTS...SASKATCHEWAN
CITY           SKY/WX    TMP DP  RH WIND       PRES   REMARKS
SWIFT CURRENT  LGT RAIN  36  34  92 SE18G24   29.66F WCI  26
REGINA         RAIN      32  27  82 SE24G33   29.88F WCI  19
VAL MARIE      N/A       41  34  76 N5         N/A
ASSINIBOIA     N/A       34  32  92 SE16G22    N/A   WCI  24
CORONACH       N/A       36  32  85 SE16       N/A   WCI  26

$$




USA.gov is the U.S. government's official web portal to all federal, state and local government web resources and services.